Location: Étavigny
(49.1201°N, 2.9800°E)
Time: 07:31:23
(UTC+00:00)

Cosmos 2322 Rocket - Pass Details

Date: 28 January 2023
Orbit: 831 x 851 km, 71.0° (Epoch: 24 March)

Event Time Altitude Azimuth Distance (km) Brightness Sun altitude
Rises 19:45:07 0° 209° (SSW) 3,365 5.6 -30.5°
Reaches altitude 10° 19:47:33 10° 210° (SSW) 2,434 4.8 -30.9°
Enters shadow 19:50:49 37° 214° (SW) 1,271 3.2 -31.4°
